Albany, NY

10:58 PM EDT on July 25, 2017 (GMT -0400)
Albany International

Weather History for KALB - January, 2014

Change the Weather History Date:

Sunday, January 12, 2014

  Actual Average Record
Temperature  
Mean Temperature 40 °F 22 °F  
Max Temperature 46 °F 30 °F 57 °F (1885)
Min Temperature 34 °F 14 °F -26 °F (1968)
Degree Days  
Heating Degree Days 25 43  
Month to date heating degree days 556 507  
Since 1 July heating degree days 3080 3042  
Cooling Degree Days 0 0  
Month to date cooling degree days 0 0  
Year to date cooling degree days 0 0  
Moisture  
Dew Point 27 °F    
Average Humidity 58    
Maximum Humidity 64    
Minimum Humidity 52    
Precipitation  
Precipitation T in 0.09 in 1.02 in (1891)
Month to date precipitation 1.68 0.99  
Year to date precipitation 1.68 0.99  
Snow  
Snow T in 0.60 in 12.80 in (2011)
Month to date snowfall 9.9 6.9  
Since 1 July snowfall 32.0 23.7  
Snow Depth 0.00 in    
Sea Level Pressure  
Sea Level Pressure 29.73 in    
Wind  
Wind Speed 13 mph (WNW)    
Max Wind Speed 28 mph    
Max Gust Speed 35 mph    
Visibility 10 miles    
Events Rain , Snow    
T = Trace of Precipitation, MM = Missing Value Source: NWS Daily Summary

Daily Weather History Graph

Daily Weather History Graph

Search for Another Location

Airport or City:

Trip Planner

Search our weather history database for the weather conditions in past years. The results will help you decide how hot, cold, wet, or windy it might be!

Date:

Astronomy

Jan. 12, 2014 Rise Set
Actual Time 7:24 AM EST 4:43 PM EST
Civil Twilight 6:52 AM EST 5:14 PM EST
Nautical Twilight 6:17 AM EST 5:49 PM EST
Astronomical Twilight 5:43 AM EST 6:23 PM EST
Moon 2:09 PM EST (1/12) 4:19 AM EST (1/12)
Length of Visible Light 10h 22m
Length of Day
9h 19m
Waxing Gibbous, 89% of the Moon is Illuminated
Jan 12
Waxing Gibbous
Jan 15
Full
Jan 24
Last Quarter
Jan 30
New
Feb 6
First Quarter

Hourly Weather History & Observations

Time (EST) Temp. Windchill Dew Point Humidity Pressure Visibility Wind Dir Wind Speed Gust Speed Precip Events Conditions
12:51 AM 44.1 °F 39.0 °F 36.0 °F 73% 29.38 in 10.0 mi West 9.2 mph - 0.00 in   Overcast
1:51 AM 44.1 °F 38.6 °F 32.0 °F 63% 29.42 in 10.0 mi West 10.4 mph - N/A   Mostly Cloudy
2:51 AM 43.0 °F 40.3 °F 32.0 °F 65% 29.46 in 10.0 mi Variable 4.6 mph - 0.00 in Rain Light Rain
3:20 AM 41.0 °F 33.5 °F 32.0 °F 70% 29.47 in 10.0 mi West 13.8 mph 32.2 mph 0.00 in   Overcast
3:51 AM 41.0 °F 34.3 °F 30.0 °F 65% 29.49 in 10.0 mi West 11.5 mph - 0.00 in   Overcast
4:51 AM 39.9 °F 31.8 °F 28.0 °F 63% 29.52 in 10.0 mi WNW 15.0 mph 23.0 mph N/A   Overcast
5:51 AM 39.9 °F 31.8 °F 28.0 °F 63% 29.54 in 10.0 mi WNW 15.0 mph 27.6 mph N/A   Overcast
6:51 AM 39.0 °F 32.3 °F 28.0 °F 65% 29.57 in 10.0 mi West 10.4 mph 24.2 mph N/A   Overcast
7:51 AM 39.0 °F 31.0 °F 28.0 °F 65% 29.62 in 10.0 mi WNW 13.8 mph - N/A   Overcast
8:51 AM 39.0 °F 30.6 °F 28.0 °F 65% 29.66 in 10.0 mi West 15.0 mph 21.9 mph N/A   Overcast
9:51 AM 39.0 °F 29.9 °F 28.0 °F 65% 29.71 in 10.0 mi WNW 17.3 mph 29.9 mph N/A   Overcast
10:51 AM 39.0 °F 29.9 °F 28.0 °F 65% 29.73 in 10.0 mi NW 17.3 mph 29.9 mph N/A   Overcast
11:42 AM 37.4 °F 28.2 °F 28.4 °F 70% 29.72 in 10.0 mi WNW 16.1 mph 24.2 mph N/A   Overcast
11:51 AM 39.0 °F 31.0 °F 28.0 °F 65% 29.73 in 10.0 mi WNW 13.8 mph 25.3 mph N/A   Overcast
12:14 PM 39.2 °F 31.6 °F 28.4 °F 65% 29.73 in 10.0 mi WNW 12.7 mph 24.2 mph N/A   Overcast
12:51 PM 39.0 °F 31.8 °F 28.0 °F 65% 29.76 in 10.0 mi WNW 11.5 mph 20.7 mph N/A   Overcast
1:51 PM 39.0 °F 29.3 °F 27.0 °F 62% 29.77 in 10.0 mi West 19.6 mph 25.3 mph N/A   Overcast
2:51 PM 39.0 °F 29.6 °F 26.1 °F 60% 29.80 in 10.0 mi WNW 18.4 mph 26.5 mph N/A   Overcast
3:51 PM 37.9 °F 29.2 °F 25.0 °F 60% 29.86 in 10.0 mi West 15.0 mph - 0.00 in Snow Light Snow
4:51 PM 37.9 °F 30.5 °F 24.1 °F 57% 29.90 in 10.0 mi West 11.5 mph - 0.00 in   Overcast
5:51 PM 37.9 °F 29.6 °F 24.1 °F 57% 29.94 in 10.0 mi West 13.8 mph 24.2 mph N/A   Overcast
6:51 PM 37.0 °F 29.8 °F 23.0 °F 57% 29.96 in 10.0 mi West 10.4 mph - N/A   Overcast
7:51 PM 37.9 °F 28.5 °F 21.9 °F 53% 29.99 in 10.0 mi WNW 17.3 mph 27.6 mph N/A   Overcast
8:51 PM 37.0 °F 31.6 °F 23.0 °F 57% 30.00 in 10.0 mi West 6.9 mph - N/A   Overcast
9:51 PM 37.0 °F 29.3 °F 21.9 °F 54% 30.01 in 10.0 mi West 11.5 mph - N/A   Mostly Cloudy
10:51 PM 36.0 °F 31.1 °F 21.0 °F 55% 30.01 in 10.0 mi West 5.8 mph - N/A   Mostly Cloudy
11:51 PM 35.1 °F 31.0 °F 21.9 °F 59% 30.02 in 10.0 mi WSW 4.6 mph - N/A   Mostly Cloudy